STARLINK-32035, 60107

Orbit data source: Space-Track

STARLINK-32035, 60107 is a payload satellite owned by SpaceX/Seattle (US) in LEO that was launched on Sun, 23 Jun 2024 UTC via an FALCON 9 launch vehicle from the Air Force Eastern Test Range (AFETR). Payload-class satellites include a variety of spacecraft equipped with specific instruments for various scientific and technological missions. These include communications satellites like Starlink; space stations such as the ISS; scientific satellites like the Hubble; Earth observation satellites from companies like Planet Labs, Umbra, and HawkEye 360; GPS; miniature CubeSats for education and research; and military/defense satellites.

Loading next visibility...
Identifier
60107, 2024-117S
Orbit
LEO
Country
Flag of USUS
Related business
Manufacturer
SpaceX/Seattle
Mission
Operational Commercial Communications
Bus & Motor
STARLINK V2M, Unknown motor
Mass
730 kg wet, ~700 kg dry
Launch date (UTC)
2024-06-23 (2 years ago)
Launch vehicle
FALCON 9
Launch site
Air Force Eastern Test Range (AFETR)
Object type
Payload
Rocket body
Debris
Shape & HBR
Box + 2 Pan, 17.7 m
Radar Cross Section
33.884 m², Large (>1 m²)

Expand to show TLE details & history
Last TLE update: 1 day ago

TLE from 1 day ago
0 STARLINK-32035
1 60107U 24117S   26170.68752276 -.00000434  00000-0 -25112-5 0  9997
2 60107  53.1609 283.2953 0001280  88.3064 271.8083 15.30201320112507
Epoch: 2026-06-19T16:30Z
TLE epoch observation values (Epoch: 2026-06-19T16:30:01.966Z)
Latitude
-0.00005°
Longitude
127.87415°
Altitude
476.083 km
Speed
7.629 km/s
True Right ascension
18h 53m 10s
True Declination
0° 00' 00"
Sunlit
Object was in full shadow at epoch
Visualization orbit readout
Latitude
Unknown
Longitude
Unknown
Altitude
Unknown
Speed
Unknown
Apparent Right ascension
Unknown
Apparent Declination
Unknown
Sunlit
N/A
Visualization observer readout
Local Sidereal Time
07:12:23
Azimuth
Unknown
Elevation
Unknown
Doppler factor
Unknown
Orbital elements
Apogee altitude
476.345 km
Perigee altitude
474.59 km
Semi-major axis
6,853.604 km
Eccentricity
0.00013
Inclination
53.1609°
RAAN
283.2953°
Arg. of periapsis
88.3064°
True anomaly
271.79364°
Mean anomaly
271.8083°
Eccentric anomaly
271.80097°
Mean motion
3.82529 °/min
Orbital period
94.11 mins
BSTAR
-0.0000025112
Loading maneuver chart data...
Computing Atmospheric mass density...
Loading historical data...
Loading historical data...
Loading historical data...
Loading historical data...
Loading historical data...
Loading historical data...
Loading historical data...

Documentation

Showing up to 5 results
|